Adventureland Estates, Iowa
Current Conditions -  °F | °C
As of 11:55 PM on Saturday 25 Oct 2014 (Local Time) from KIKV Reporting Station
Clear Clear  
Wind Chill: 45°   Ceiling: Unl
Heat Index: 45°   Visibility: 10mi
Dew Point: 41°   Wind: 3mph
Humidity: 87%   Direction: 30°NNE
Pressure: 30.06"   Gusts: NA
Location:  41.6405°N, 93.4586°W
Report Text: KIKV 260455Z AUTO 03003KT 10SM CLR 07/05 A3006 RMK AO2
Loading
Personal Weather Stations






























Interactive Weather Map
Tropical Storm Tracking
New forecast layout! Learn more

10-Day Weather Forecast

Advertisements
Track Severe Weather on mobile